www.pogodaiklimat.ru

Погода и климат >> Архив погоды >> Индонезия >> Джаяпура


ПОГОДА в Джаяпуре

  • Прогноз погоды в Джаяпуре
  • Монитор погоды в Джаяпуре

АРХИВ ПОГОДЫ в Джаяпуре

Время (UTC), дата Ветер
(напр.,м/с)
 
Видим.   Явления Облачность Т
(С)
Тd
(С)
f
(%)
Тe
(С)
Тes
(С)
Комфортность P
(гПа)
Po
(гПа)
Тmin
(С)
Tmax
(С)
R
(мм)
R24
(мм)
S
(см)
21 16.01 ЮЗ 2 8000 м {дождь} 10/6 330 м
[Cb cap As op Ci sp]
+25.8 +25.0 95 +37 +37 очень
душно
1006.4 1006.0 2
00 17.01 В 2 8000 м 10/6 300 м
[Cb cap As op Ci sp]
+27.7 +26.1 91 +42 +44 опасность
перегрева
1007.9 1007.6 +25.7 2
03 17.01 штиль 0 7000 м в посл. час дождь 10/6 330 м
[Cb cap As op Ci sp]
+26.5 +25.7 95 +39 +44 очень
душно
1006.2 1005.8 15
06 17.01 штиль 0 6000 м слаб. дождь 10/5 400 м
[Cb cap Ac As]
+27.2 +25.9 93 +41 +42 опасность
перегрева
1004.5 1004.2 6
09 17.01 штиль 0 6000 м слаб. дождь 10/5 400 м
[Cb cap Ac As]
+27.0 +26.2 95 +41 +41 опасность
перегрева
1005.6 1005.3 1
12 17.01 штиль 0 6000 м осадки на расстоянии 9/4 400 м
[Cb cap Ac As Ci sp]
+26.2 +25.9 98 +39 +39 очень
душно
1007.7 1007.4 +28.4 1
21 17.01 ЮВ 1 10 км 10/1 360 м
[Cu hum As op Ci sp]
+25.7 +25.9 100 +38 +38 очень
душно
1006.0 1005.6
00 18.01 штиль 0 10 км 8/4 420 м
[Cu hum Ac trans Ci fib]
+28.3 +26.0 87 +42 +49 опасность
перегрева
1007.9 1007.6 +25.2 22
03 18.01 СВ 4 10 км 8/4 420 м
[Cu med, cong Ac trans Ci fib]
+30.2 +27.0 83 +47 +53 опасность
перегрева
1006.4 1006.0
06 18.01 СВ 3 10 км 9/4 420 м
[Cb cap Ac trans Ci fib]
+30.6 +28.0 86 +51 +53 опасность
перегрева
1003.7 1003.4
09 18.01 штиль 0 9000 м осадки на расстоянии 8/4 400 м
[Cb cap Ac trans Ci sp]
+29.6 +28.0 91 +49 +49 опасность
перегрева
1005.8 1005.4
12 18.01 штиль 0 9000 м осадки на расстоянии 9/4 400 м
[Cb cap Ac As Ci sp]
+28.2 +26.1 88 +42 +42 опасность
перегрева
1008.3 1008.0 +31.2
21 18.01 Ю 4 10 км 8/3 420 м
[Cu med, cong Ac As Ci sp]
+26.0 +25.2 95 +37 +37 очень
душно
1008.0 1007.7
00 19.01 Ю 4 11 км 6/1 420 м
[Cu med, cong Ac trans Cs]
+28.8 +24.5 78 +41 +46 опасность
перегрева
1009.0 1008.7 +26.0
03 19.01 СВ 2 9000 м осадки на расстоянии 8/4 400 м
[Cb cap Ac As Cs]
+30.6 +26.4 78 +47 +54 опасность
перегрева
1007.0 1006.7
06 19.01 С 3 6000 м осадки на расстоянии 10/4 400 м
[Cb cap Ac As Cs]
+29.4 +25.6 80 +43 +46 опасность
перегрева
1005.6 1005.2
09 19.01 штиль 0 6000 м осадки на расстоянии 10/4 400 м
[Cb cap Ac As]
+28.8 +27.0 90 +45 +45 опасность
перегрева
1007.2 1006.8
12 19.01 Ю 2 6000 м осадки на расстоянии 10/4 400 м
[Cb cap Ac As]
+27.8 +26.2 91 +42 +42 опасность
перегрева
1008.7 1008.3 +31.2
21 19.01 ЮЗ 2 6000 м осадки на расстоянии 10/3 400 м
[Cb cap Ac As]
+27.0 +25.1 89 +39 +39 очень
душно
1006.7 1006.3
00 20.01 В 3 7000 м мгла 9/3 400 м
[Cb cap Ac As]
+28.8 +26.1 85 +43 +46 опасность
перегрева
1008.7 1008.4 +27.8
03 20.01 С 5 8000 м мгла 10/4 400 м
[Cb cap Ac As]
+29.4 +26.5 84 +45 +47 опасность
перегрева
1007.9 1007.5
06 20.01 З 3 7000 м слаб. дождь 9/4 400 м
[Cb cap As op Ci sp]
+30.0 +26.4 81 +46 +48 опасность
перегрева
1006.0 1005.6 0.0
09 20.01 Ю 2 7000 м осадки на расстоянии 9/4 400 м
[Cb cap Ac As Ci sp]
+28.6 +27.3 93 +46 +46 опасность
перегрева
1007.5 1007.1 0.0
12 20.01 Ю 1 7000 м в посл. час дождь 10/5 400 м
[Cb cap As op]
+27.2 +25.6 91 +40 +40 очень
душно
1009.8 1009.4 +30.4 0.2
21 20.01 ЮЗ 1 8000 м 9/3 400 м
[Cb cap Ac trans Ci sp]
+25.6 +24.5 94 +36 +36 очень
душно
1008.6 1008.3
00 21.01 СВ 3 9000 м 9/3 420 м
[Cu med, cong Ac trans Ci sp]
+28.4 +25.2 83 +41 +46 опасность
перегрева
1009.9 1009.5 +25.6 0.2
03 21.01 штиль 0 9000 м осадки на расстоянии 9/5 400 м
[Cb cap Ac As Ci sp]
+29.8 +26.1 81 +45 +53 опасность
перегрева
1008.1 1007.8
06 21.01 штиль 0 7000 м осадки на расстоянии 9/4 400 м
[Cb cap Ac As Ci sp]
+30.0 +26.6 82 +46 +50 опасность
перегрева
1005.6 1005.3
09 21.01 штиль 0 8000 м осадки на расстоянии 9/5 400 м
[Cb cap Ac As Ci sp]
+28.8 +27.0 90 +45 +45 опасность
перегрева
1007.1 1006.8
12 21.01 штиль 0 8000 м осадки на расстоянии 9/5 400 м
[Cb cap Ac As Ci sp]
+27.2 +25.6 91 +40 +40 очень
душно
1009.7 1009.3 +30.4
21 21.01 штиль 0 7000 м мгла 6/1 420 м
[Cu hum Ac trans Ci sp]
+25.6 +24.2 92 +35 +36 очень
душно
1008.8 1008.4
00 22.01 В 2 9000 м {туман} 8/3 420 м
[Cu med, cong Ci sp]
+28.6 +25.4 83 +42 +49 опасность
перегрева
1009.0 1008.6 +25.6
03 22.01 Ю 2 8000 м слаб. дождь 8/5 400 м
[Cb calv Ac trans Ci sp]
+30.0 +26.6 82 +46 +53 опасность
перегрева
1007.4 1007.0 0.1
06 22.01 З 2 10 км {дождь} 4/4 420 м
[Cu hum Ci ing]
+31.7 +26.3 73 +48 +53 опасность
перегрева
1004.5 1004.1 0.5
09 22.01 В 3 10 км 8/3 420 м
[Cu hum Ac trans Ci fib]
+30.7 +25.2 73 +45 +45 опасность
перегрева
1005.7 1005.4
12 22.01 штиль 0 7000 м 8/3 420 м
[Cu hum Ac trans Ci fib]
+28.0 +25.0 84 +40 +40 очень
душно
1008.5 1008.1 +32.8
21 22.01 ЮЗ 2 6000 м осадки на расстоянии 10/4 400 м
[Cb cap Ac As]
+26.2 +24.3 89 +36 +37 очень
душно
1008.7 1008.3
00 23.01 В 2 7000 м осадки на расстоянии 9/4 300 м
[Cb cap Ac As]
+28.8 +26.1 85 +43 +47 опасность
перегрева
1009.8 1009.5 +26.2 0.6
03 23.01 СВ 3 8000 м осадки на расстоянии 9/4 400 м
[Cb cap Ac As]
+30.2 +26.2 79 +46 +50 опасность
перегрева
1007.9 1007.5
06 23.01 С 2 9000 м осадки на расстоянии 9/4 400 м
[Cb cap Ac As Cs]
+31.0 +25.7 73 +46 +48 опасность
перегрева
1005.7 1005.3
09 23.01 З 2 9000 м осадки на расстоянии 9/3 400 м
[Cb cap Ac As Ci sp]
+29.6 +25.0 76 +42 +42 опасность
перегрева
1007.0 1006.6
12 23.01 штиль 0 9000 м 8/3 420 м
[Cu med, cong Ac As Ci sp]
+27.4 +24.4 84 +39 +39 очень
душно
1009.1 1008.7 +31.6

 

Местоположение метеостанции Джаяпура (Индонезия): широта -2.59 долгота 140.71 высота над уровнем моря 3 м.

В архиве по умолчанию представлена погода в Джаяпуре за последнюю неделю. Архивные данные за месяц целиком и за предыдущие месяцы, начиная с января 2011 года, Вы можете получить, выбрав интересующий диапазон дат из раскрывающегося списка и нажав кнопку "Ввод!".


*Определитесь, кто Вы:
робот инопланетянин человек

Внимание! Время в таблицах - всемирное. Для получения местного времени необходимо прибавить поправку, которая равна 9 ч.

Смотрите также архив погоды в соседних городах и на ближайших метеорологических станциях:

Погода в Сентани (Индонезия) (21 км)
Погода в Сарми (Индонезия) (238 км)
Погода в Вамене (Индонезия) (256 км)
Погода в Танах Мерах (Индонезия) (393 км)
Погода в Коконао (Индонезия) (450 км)
Погода в Энаротали (Индонезия) (504 км)
Погода в Серуи (Индонезия) (504 км)
Погода в Биаке (Индонезия) (535 км)
Погода в Набире (Индонезия) (585 км)
Погода в Мерауке (Индонезия) (655 км)

Пояснения к столбцам:

Ветер - указаны скорость ветра в м/с - средняя за 10 мин, порывы в срок и между сроками (в фигурных скобках) и направление, откуда дует ветер: С - северный, СВ - северо-восточный, В - восточный, ЮВ - юго-восточный, Ю - южный, ЮЗ - юго-западный, З - западный, СЗ - северо-западный.
Видимость - горизонтальная дальность видимости в метрах или километрах. При видимости от 1 до 10 км при отсутствии осадков обычно наблюдается дымка, при ухудшении видимости до 1 км и менее - туман. В сухую погоду видимость может ухудшаться дымом, пылью или мглою.
Явления - указаны атмосферные явления, наблюдавшиеся в срок или в последний час перед сроком; фигурными скобками обозначены явления, наблюдавшиеся между сроками (за 1-3 часа до срока); квадратными скобками обозначены град или гололедные отложения с указанием их диаметра в мм.
Облачность - указаны через наклонную черту общая и нижняя облачность в баллах и высота нижней границы облаков в метрах; квадратными скобками обозначены формы облаков: Ci - перистые, Cs - перисто-слоистые, Cc - перисто-кучевые, Ac - высококучевые, As - высокослоистые, Sc - слоисто-кучевые, Ns - слоисто-дождевые, Cu - кучевые, Cb - кучево-дождевые. Подробнее классификацию облаков см. в Атласе облаков (PDF).
T - Температура воздуха - температура, измеренная на высоте 2 м над землей.
Td - Температура точки росы - температура, при понижении до которой содержащийся в воздухе водяной пар достигнет насыщения.
f - Относительная влажность воздуха - влажноcть воздуха, измеренная на высоте 2 м над землей.
Te - Эффективная температура - температура, которую ощущает одетый по сезону человек в тени. Характеристика душности погоды. При расчете учитывается влияние влажности воздуха и скорости ветра на теплоощущения человека.
Tes - Эффективная температура на солнце - температура, которую ощущает человек, с поправкой на солнечный нагрев. Характеристика знойности погоды. Зависит от высоты солнца над горизонтом, облачности и скорости ветра. Ночью, в пасмурную погоду, а также при ветре 12 м/с и более поправка равна нулю.
P - Атмосферное давление - приведенное к уровню моря атмосферное давление.
Po - Атмосферное давление - измеренное на уровне метеостанции атмосферное давление.
Tmin - Минимальная температура - минимум температуры воздуха на высоте 2 м над землей.
Tmax - Максимальная температура - максимум температуры воздуха на высоте 2 м над землей.
R - Количество осадков - Количество выпавших осадков за период времени, мм. При наведении курсора мыши на число - период времени, за который выпало указанное количество осадков.
R24 - Количество осадков - Количество выпавших осадков за 24 часа, мм.
S - Снежный покров - Высота снежного покрова, см. При наведении курсора мыши на число - состояние снежного покрова и степень покрытия местности в баллах.